contact:dominique.lefevre@mio.osupytheas.fr, maurice.libes@osupytheas.fr, didier.mallarino@osupytheas.fr
Project:EMSO http://www.emso-fr.org/EMSO-France
Depth: 2436.0 m
Title:EMSO Ligure Ouest : Data MII capteur AQUADOPP
Date,Latitude,Longitude,X_East,Y_North,Z_Up,Amplitude_X,Amplitude_Y,Amplitude_Z,Batterie,SoundSpeed,Heading,Pitch,Roll,Pressure,TIS,Speed,Direction
, degrees North, degrees East, m.s-1, m.s-1,m.s-1, 1, 1, 1, Volt, m.s-1, degree, degree, degree, dbar, degree_C, m.s-1, degree
2019-10-01T00:04:05,42.805,6.029,-0.023,0.004,-0.075,101.0,103.0,98.0,13.3,1505.1,327.2,-0.8,1.8,2470.518,13.27,0.023,279.9
2019-10-01T00:07:06,42.805,6.029,-0.026,-0.008,-0.05,99.0,103.0,97.0,13.4,1505.2,326.9,-0.8,1.9,2470.35,13.29,0.027,252.9
2019-10-01T00:10:07,42.805,6.029,-0.015,0.0,-0.054,100.0,104.0,97.0,13.4,1505.2,326.9,-0.7,1.8,2470.149,13.3,0.015,270.0
2019-10-01T00:13:08,42.805,6.029,0.01,-0.02,-0.037,99.0,103.0,98.0,13.4,1505.3,323.5,-0.8,1.8,2470.05,13.31,0.022,153.4
2019-10-01T00:16:09,42.805,6.029,0.005,-0.004,-0.062,99.0,104.0,97.0,13.3,1505.3,324.8,-0.7,1.9,2469.887,13.32,0.006,128.7
2019-10-01T00:19:10,42.805,6.029,0.016,-0.02,-0.04,101.0,102.0,98.0,13.3,1505.3,323.4,-0.7,1.8,2469.821,13.32,0.025,141.3
2019-10-01T00:22:11,42.805,6.029,0.008,-0.019,-0.053,100.0,104.0,97.0,13.3,1505.3,323.6,-0.7,1.8,2469.832,13.32,0.02,157.2
2019-10-01T00:25:12,42.805,6.029,-0.004,0.019,-0.083,102.0,104.0,97.0,13.4,1505.3,323.8,-0.7,1.8,2469.776,13.33,0.019,348.1
2019-10-01T00:28:13,42.805,6.029,0.0,-0.002,-0.026,101.0,102.0,98.0,13.4,1505.3,323.7,-0.7,1.8,2469.747,13.33,0.002,180.0
2019-10-01T00:31:14,42.805,6.029,0.0,0.012,-0.049,100.0,104.0,97.0,13.3,1505.3,323.8,-0.7,1.9,2469.769,13.33,0.012,0.0
2019-10-01T00:34:15,42.805,6.029,0.087,0.018,0.051,99.0,105.0,98.0,13.4,1505.3,327.3,-0.7,1.8,2469.795,13.33,0.088,78.3
2019-10-01T00:37:16,42.805,6.029,0.086,0.006,0.059,100.0,105.0,97.0,13.3,1505.3,326.2,-0.7,1.8,2469.773,13.33,0.086,86.0
2019-10-01T00:40:17,42.805,6.029,0.078,0.005,0.044,101.0,104.0,97.0,13.4,1505.3,325.5,-0.7,1.8,2469.759,13.33,0.078,86.3
2019-10-01T00:43:18,42.805,6.029,0.012,-0.014,-0.042,100.0,103.0,98.0,13.4,1505.3,326.5,-0.7,1.8,2469.736,13.33,0.018,139.4
2019-10-01T00:46:19,42.805,6.029,0.063,0.003,0.044,98.0,104.0,98.0,13.4,1505.3,325.1,-0.7,1.8,2469.815,13.33,0.063,87.3
2019-10-01T00:49:20,42.805,6.029,0.079,0.011,0.053,100.0,105.0,98.0,13.4,1505.3,325.6,-0.7,1.8,2469.806,13.33,0.079,82.1
2019-10-01T00:52:21,42.805,6.029,0.053,-0.006,0.016,100.0,102.0,98.0,13.4,1505.3,327.3,-0.7,1.8,2469.809,13.33,0.053,96.5
2019-10-01T00:55:22,42.805,6.029,0.03,-0.002,-0.019,99.0,106.0,98.0,13.4,1505.3,324.6,-0.7,1.8,2469.822,13.33,0.03,93.8
2019-10-01T00:58:23,42.805,6.029,0.046,-0.013,-0.009,100.0,104.0,98.0,13.3,1505.3,328.2,-0.7,1.8,2469.827,13.33,0.047,105.8
2019-10-01T01:01:24,42.805,6.029,0.038,-0.004,0.038,101.0,104.0,98.0,13.4,1505.3,328.1,-0.7,1.8,2469.823,13.33,0.038,96.0
2019-10-01T01:04:25,42.805,6.029,0.036,0.001,-0.019,102.0,104.0,96.0,13.4,1505.3,327.3,-0.7,1.8,2469.824,13.33,0.036,88.4
2019-10-01T01:07:26,42.805,6.029,0.017,0.006,0.007,99.0,105.0,98.0,13.4,1505.3,324.7,-0.7,1.8,2469.873,13.33,0.018,70.6
2019-10-01T01:10:27,42.805,6.029,0.025,-0.01,-0.031,99.0,104.0,98.0,13.4,1505.3,328.7,-0.7,1.8,2469.894,13.33,0.026,111.8
2019-10-01T01:13:28,42.805,6.029,0.038,0.015,0.001,102.0,103.0,96.0,13.4,1505.3,325.1,-0.7,1.8,2469.775,13.33,0.04,68.5
2019-10-01T01:16:29,42.805,6.029,0.075,-0.015,0.015,100.0,103.0,98.0,13.4,1505.3,324.9,-0.7,1.8,2469.853,13.33,0.076,101.3
2019-10-01T01:19:30,42.805,6.029,0.011,-0.008,-0.032,100.0,103.0,98.0,13.3,1505.3,324.7,-0.7,1.8,2469.838,13.33,0.013,126.0
2019-10-01T01:22:31,42.805,6.029,0.053,0.009,-0.011,100.0,103.0,97.0,13.4,1505.3,327.4,-0.7,1.8,2469.864,13.33,0.053,80.4
2019-10-01T01:25:32,42.805,6.029,-0.012,0.0,-0.033,99.0,105.0,98.0,13.4,1505.3,326.7,-0.7,1.8,2469.855,13.33,0.012,270.0
2019-10-01T01:28:33,42.805,6.029,0.006,-0.028,-0.034,102.0,104.0,98.0,13.4,1505.3,323.7,-0.7,1.8,2469.869,13.33,0.028,167.9
2019-10-01T01:31:34,42.805,6.029,-0.006,0.003,-0.002,100.0,103.0,97.0,13.4,1505.3,323.0,-0.7,1.8,2469.813,13.33,0.006,296.6
2019-10-01T01:34:35,42.805,6.029,0.026,-0.004,-0.023,100.0,103.0,97.0,13.4,1505.3,323.6,-0.7,1.8,2469.834,13.33,0.026,98.7
2019-10-01T01:37:36,42.805,6.029,-0.021,-0.015,-0.036,100.0,103.0,96.0,13.4,1505.3,324.0,-0.7,1.8,2469.824,13.33,0.025,234.5
2019-10-01T01:40:37,42.805,6.029,-0.002,0.007,-0.016,99.0,103.0,98.0,13.4,1505.3,323.7,-0.7,1.8,2469.884,13.33,0.007,344.1
2019-10-01T01:43:38,42.805,6.029,0.021,-0.014,0.019,99.0,103.0,99.0,13.3,1505.3,323.8,-0.7,1.9,2469.809,13.33,0.025,123.7
2019-10-01T01:46:39,42.805,6.029,0.014,-0.02,0.009,99.0,102.0,98.0,13.4,1505.3,326.9,-0.7,1.8,2469.8,13.33,0.024,145.0
2019-10-01T01:49:40,42.805,6.029,0.038,0.004,0.051,99.0,103.0,97.0,13.4,1505.3,327.1,-0.7,1.9,2469.837,13.33,0.038,84.0
2019-10-01T01:52:41,42.805,6.029,0.054,-0.005,0.033,101.0,104.0,96.0,13.3,1505.3,326.2,-0.7,1.8,2469.798,13.33,0.054,95.3
2019-10-01T01:55:42,42.805,6.029,0.033,-0.003,0.019,101.0,103.0,97.0,13.4,1505.3,324.5,-0.7,1.8,2469.834,13.33,0.033,95.2
2019-10-01T01:58:43,42.805,6.029,0.048,-0.014,0.01,101.0,103.0,97.0,13.3,1505.3,323.2,-0.7,1.9,2469.8,13.33,0.05,106.3
2019-10-01T02:01:44,42.805,6.029,0.047,-0.009,0.011,97.0,102.0,98.0,13.4,1505.3,323.5,-0.7,1.9,2469.809,13.33,0.047,100.8
2019-10-01T02:04:45,42.805,6.029,0.046,-0.012,0.012,99.0,102.0,98.0,13.4,1505.3,328.2,-0.7,1.9,2469.787,13.33,0.047,104.6
2019-10-01T02:07:46,42.805,6.029,0.039,-0.007,0.004,101.0,102.0,96.0,13.3,1505.3,327.5,-0.7,1.8,2469.858,13.33,0.039,100.2
2019-10-01T02:10:47,42.805,6.029,0.034,0.006,-0.016,103.0,102.0,98.0,13.3,1505.3,327.9,-0.7,1.8,2469.832,13.33,0.034,80.0
2019-10-01T02:13:48,42.805,6.029,0.071,0.003,0.0,99.0,102.0,98.0,13.4,1505.3,324.4,-0.7,1.8,2469.831,13.33,0.071,87.6
2019-10-01T02:16:49,42.805,6.029,0.013,-0.003,-0.049,98.0,102.0,97.0,13.4,1505.3,324.0,-0.7,1.9,2469.813,13.33,0.013,103.0
2019-10-01T02:19:50,42.805,6.029,0.029,0.005,-0.014,99.0,102.0,96.0,13.4,1505.3,326.4,-0.7,1.8,2469.826,13.33,0.029,80.2
2019-10-01T02:22:51,42.805,6.029,-0.005,-0.016,-0.023,98.0,102.0,97.0,13.4,1505.3,323.9,-0.7,1.8,2469.831,13.33,0.016,197.4
2019-10-01T02:25:52,42.805,6.029,0.028,-0.003,-0.014,99.0,101.0,97.0,13.4,1505.3,325.7,-0.7,1.8,2469.798,13.33,0.028,96.1
2019-10-01T02:28:53,42.805,6.029,0.023,0.0,0.03,100.0,103.0,97.0,13.4,1505.3,323.2,-0.7,1.8,2469.839,13.33,0.023,90.0
2019-10-01T02:31:54,42.805,6.029,0.024,-0.019,0.004,99.0,103.0,97.0,13.4,1505.3,327.6,-0.7,1.8,2469.846,13.33,0.03,128.4
2019-10-01T02:34:55,42.805,6.029,0.08,-0.003,0.039,100.0,102.0,97.0,13.4,1505.3,327.6,-0.7,1.8,2469.81,13.33,0.08,92.1
2019-10-01T02:37:56,42.805,6.029,0.051,0.004,0.024,99.0,102.0,96.0,13.4,1505.3,326.1,-0.7,1.8,2469.8,13.33,0.051,85.5
2019-10-01T02:40:57,42.805,6.029,0.039,0.016,0.015,98.0,103.0,97.0,13.4,1505.3,325.3,-0.7,1.9,2469.841,13.33,0.042,67.7
2019-10-01T02:43:58,42.805,6.029,-0.007,-0.001,-0.024,99.0,103.0,98.0,13.3,1505.3,326.5,-0.7,1.8,2469.843,13.33,0.007,261.9
2019-10-01T02:46:59,42.805,6.029,-0.013,0.0,-0.036,100.0,104.0,97.0,13.3,1505.3,323.6,-0.8,1.8,2469.807,13.33,0.013,270.0
2019-10-01T02:50:00,42.805,6.029,0.022,-0.003,-0.016,99.0,103.0,97.0,13.4,1505.3,325.6,-0.7,1.8,2469.819,13.33,0.022,97.8
2019-10-01T02:53:01,42.805,6.029,-0.006,-0.001,-0.011,100.0,102.0,97.0,13.4,1505.3,326.5,-0.7,1.8,2469.835,13.33,0.006,260.5
2019-10-01T02:56:02,42.805,6.029,-0.002,0.005,-0.016,99.0,103.0,97.0,13.4,1505.3,325.2,-0.7,1.8,2469.856,13.33,0.005,338.2
2019-10-01T02:59:03,42.805,6.029,0.007,0.0,-0.033,99.0,103.0,98.0,13.3,1505.3,323.6,-0.7,1.8,2469.798,13.33,0.007,90.0
2019-10-01T03:02:04,42.805,6.029,-0.006,-0.001,-0.039,99.0,104.0,97.0,13.4,1505.3,323.6,-0.7,1.8,2469.79,13.33,0.006,260.5
2019-10-01T03:05:05,42.805,6.029,0.006,-0.014,-0.052,98.0,103.0,97.0,13.4,1505.3,323.7,-0.7,1.8,2469.81,13.33,0.015,156.8
2019-10-01T03:08:06,42.805,6.029,-0.013,0.009,-0.009,99.0,103.0,98.0,13.4,1505.3,323.2,-0.7,1.8,2469.816,13.33,0.015,304.7
2019-10-01T03:11:07,42.805,6.029,-0.004,0.001,-0.044,99.0,103.0,97.0,13.3,1505.3,324.9,-0.7,1.8,2469.834,13.33,0.004,284.0
2019-10-01T03:14:08,42.805,6.029,-0.035,-0.004,-0.057,99.0,103.0,98.0,13.4,1505.3,327.3,-0.7,1.8,2469.803,13.33,0.035,263.5
2019-10-01T03:17:09,42.805,6.029,0.033,-0.039,-0.058,99.0,103.0,97.0,13.4,1505.3,324.6,-0.7,1.8,2469.837,13.33,0.051,139.8
2019-10-01T03:20:10,42.805,6.029,0.028,-0.003,0.02,101.0,104.0,97.0,13.3,1505.3,326.8,-0.7,1.8,2469.832,13.33,0.028,96.1
2019-10-01T03:23:11,42.805,6.029,0.007,-0.011,-0.01,99.0,104.0,98.0,13.4,1505.3,326.7,-0.7,1.8,2469.834,13.33,0.013,147.5
2019-10-01T03:26:12,42.805,6.029,0.022,0.001,-0.018,101.0,103.0,97.0,13.3,1505.3,326.6,-0.7,1.8,2469.809,13.33,0.022,87.4
2019-10-01T03:29:13,42.805,6.029,-0.009,-0.011,-0.025,99.0,103.0,98.0,13.4,1505.3,325.5,-0.7,1.8,2469.805,13.33,0.014,219.3
2019-10-01T03:32:14,42.805,6.029,0.015,-0.006,-0.026,100.0,104.0,98.0,13.4,1505.3,323.7,-0.7,1.8,2469.815,13.33,0.016,111.8
2019-10-01T03:35:15,42.805,6.029,0.028,-0.016,-0.035,98.0,103.0,97.0,13.4,1505.3,327.7,-0.7,1.8,2469.788,13.33,0.032,119.7
2019-10-01T03:38:16,42.805,6.029,0.008,-0.015,-0.024,100.0,103.0,97.0,13.3,1505.3,325.5,-0.7,1.8,2469.835,13.33,0.017,151.9
2019-10-01T03:41:17,42.805,6.029,0.025,0.0,-0.007,100.0,104.0,97.0,13.4,1505.3,323.5,-0.7,1.8,2469.84,13.33,0.025,90.0
2019-10-01T03:44:18,42.805,6.029,0.021,-0.007,0.018,99.0,103.0,97.0,13.4,1505.3,325.0,-0.8,1.8,2469.816,13.33,0.022,108.4
2019-10-01T03:47:19,42.805,6.029,0.003,0.003,0.016,99.0,105.0,96.0,13.3,1505.3,328.5,-0.7,1.8,2469.863,13.33,0.004,45.0
2019-10-01T03:50:20,42.805,6.029,0.014,-0.002,0.024,99.0,103.0,97.0,13.3,1505.3,325.6,-0.7,1.8,2469.825,13.33,0.014,98.1
2019-10-01T03:53:21,42.805,6.029,0.041,-0.003,-0.025,99.0,104.0,97.0,13.3,1505.3,323.6,-0.7,1.8,2469.862,13.33,0.041,94.2
2019-10-01T03:56:22,42.805,6.029,0.025,-0.013,-0.018,99.0,103.0,97.0,13.3,1505.3,326.7,-0.7,1.8,2469.822,13.33,0.028,117.5
2019-10-01T03:59:23,42.805,6.029,0.023,-0.006,0.038,99.0,103.0,97.0,13.4,1505.3,325.0,-0.7,1.8,2469.826,13.33,0.023,104.6
2019-10-01T04:02:24,42.805,6.029,0.057,-0.004,0.011,100.0,102.0,97.0,13.4,1505.3,327.3,-0.7,1.8,2469.802,13.33,0.057,94.0
2019-10-01T04:05:25,42.805,6.029,0.036,0.003,-0.019,99.0,103.0,99.0,13.4,1505.3,324.9,-0.7,1.8,2469.863,13.33,0.036,85.2
2019-10-01T04:08:26,42.805,6.029,0.032,0.008,-0.007,99.0,103.0,97.0,13.4,1505.3,323.6,-0.7,1.8,2469.83,13.33,0.032,76.0
2019-10-01T04:11:27,42.805,6.029,0.036,-0.013,0.017,100.0,103.0,97.0,13.4,1505.3,326.4,-0.7,1.8,2469.837,13.33,0.038,109.9
2019-10-01T04:14:28,42.805,6.029,0.018,-0.003,-0.015,99.0,102.0,98.0,13.4,1505.3,326.1,-0.7,1.8,2469.818,13.33,0.018,99.5
2019-10-01T04:17:29,42.805,6.029,0.002,0.01,-0.026,100.0,103.0,97.0,13.4,1505.3,322.7,-0.8,1.8,2469.809,13.33,0.01,11.3
2019-10-01T04:20:30,42.805,6.029,0.006,0.008,-0.031,99.0,102.0,97.0,13.4,1505.3,325.8,-0.7,1.8,2469.826,13.33,0.01,36.9
2019-10-01T04:23:31,42.805,6.029,-0.012,0.008,-0.02,99.0,103.0,96.0,13.4,1505.3,324.6,-0.7,1.8,2469.885,13.33,0.014,303.7
2019-10-01T04:26:32,42.805,6.029,0.002,-0.013,-0.006,98.0,103.0,97.0,13.4,1505.3,325.5,-0.7,1.8,2469.839,13.33,0.013,171.3
2019-10-01T04:29:33,42.805,6.029,-0.02,0.006,-0.047,102.0,105.0,97.0,13.4,1505.3,323.7,-0.7,1.8,2469.852,13.33,0.02,286.7
2019-10-01T04:32:34,42.805,6.029,0.004,0.0,-0.041,99.0,103.0,99.0,13.4,1505.3,326.6,-0.7,1.9,2469.856,13.33,0.004,90.0
2019-10-01T04:35:35,42.805,6.029,-0.009,-0.015,-0.044,99.0,103.0,97.0,13.3,1505.3,326.9,-0.7,1.8,2469.868,13.33,0.017,211.0
2019-10-01T04:38:36,42.805,6.029,0.018,0.002,-0.017,99.0,103.0,97.0,13.3,1505.3,327.3,-0.7,1.9,2469.853,13.33,0.018,83.7
2019-10-01T04:41:37,42.805,6.029,-0.012,0.024,0.009,98.0,103.0,97.0,13.3,1505.3,326.1,-0.7,1.8,2469.883,13.33,0.026,333.4
2019-10-01T04:44:38,42.805,6.029,0.001,0.004,-0.02,99.0,103.0,97.0,13.4,1505.3,326.5,-0.7,1.8,2469.865,13.33,0.004,14.0
2019-10-01T04:47:39,42.805,6.029,-0.035,-0.005,-0.067,99.0,104.0,97.0,13.4,1505.3,325.0,-0.7,1.8,2469.867,13.33,0.035,261.9
2019-10-01T04:50:40,42.805,6.029,0.004,-0.006,-0.036,100.0,103.0,97.0,13.4,1505.3,325.9,-0.7,1.8,2469.875,13.33,0.007,146.3
2019-10-01T04:53:41,42.805,6.029,0.009,0.005,-0.002,100.0,102.0,97.0,13.3,1505.3,323.4,-0.8,1.8,2469.89,13.33,0.01,60.9
2019-10-01T04:56:42,42.805,6.029,0.004,-0.003,-0.009,99.0,104.0,97.0,13.3,1505.3,327.4,-0.7,1.8,2469.865,13.33,0.005,126.9
2019-10-01T04:59:43,42.805,6.029,0.008,-0.005,-0.001,98.0,103.0,97.0,13.3,1505.3,326.4,-0.7,1.8,2469.875,13.33,0.009,122.0
2019-10-01T05:02:44,42.805,6.029,-0.001,-0.006,-0.042,99.0,103.0,98.0,13.4,1505.3,326.3,-0.7,1.8,2469.878,13.33,0.006,189.5
2019-10-01T05:05:45,42.805,6.029,0.013,0.005,-0.018,99.0,103.0,96.0,13.3,1505.3,324.4,-0.7,1.8,2469.881,13.33,0.013,69.0
2019-10-01T05:08:46,42.805,6.029,0.02,-0.011,-0.023,97.0,105.0,97.0,13.4,1505.3,324.6,-0.7,1.8,2469.894,13.33,0.022,118.8
2019-10-01T05:11:47,42.805,6.029,0.006,-0.008,-0.016,100.0,103.0,97.0,13.4,1505.3,326.3,-0.7,1.8,2469.859,13.33,0.01,143.1
2019-10-01T05:14:48,42.805,6.029,-0.009,0.006,-0.045,98.0,103.0,97.0,13.4,1505.3,327.9,-0.7,1.8,2469.887,13.33,0.01,303.7
2019-10-01T05:17:49,42.805,6.029,0.001,-0.011,-0.043,98.0,103.0,97.0,13.4,1505.3,325.3,-0.7,1.9,2469.918,13.33,0.011,174.8
2019-10-01T05:20:50,42.805,6.029,-0.023,-0.012,-0.043,100.0,103.0,97.0,13.4,1505.3,325.6,-0.7,1.8,2469.917,13.33,0.025,242.4
2019-10-01T05:23:51,42.805,6.029,-0.009,-0.001,-0.062,99.0,103.0,97.0,13.4,1505.3,326.0,-0.7,1.8,2469.877,13.33,0.009,263.7
2019-10-01T05:26:52,42.805,6.029,-0.01,-0.003,-0.054,100.0,103.0,97.0,13.3,1505.3,323.2,-0.7,1.8,2469.898,13.33,0.01,253.3
2019-10-01T05:29:53,42.805,6.029,0.003,-0.022,-0.035,98.0,104.0,97.0,13.3,1505.3,324.4,-0.7,1.8,2469.899,13.33,0.022,172.2
2019-10-01T05:32:54,42.805,6.029,-0.02,-0.013,-0.038,102.0,104.0,97.0,13.4,1505.3,325.7,-0.7,1.9,2469.934,13.33,0.023,237.0
2019-10-01T05:35:55,42.805,6.029,-0.044,-0.012,-0.05,98.0,104.0,97.0,13.4,1505.3,327.9,-0.7,1.8,2469.924,13.33,0.045,254.7
2019-10-01T05:38:56,42.805,6.029,-0.026,0.004,-0.063,99.0,103.0,97.0,13.4,1505.3,325.6,-0.7,1.8,2469.942,13.33,0.026,278.7
2019-10-01T05:41:57,42.805,6.029,-0.001,-0.018,-0.042,100.0,103.0,97.0,13.3,1505.3,327.1,-0.7,1.8,2469.944,13.33,0.018,183.2
2019-10-01T05:44:58,42.805,6.029,0.018,-0.012,-0.015,99.0,103.0,97.0,13.4,1505.3,325.2,-0.7,1.9,2469.902,13.33,0.021,123.7
2019-10-01T05:47:59,42.805,6.029,-0.021,-0.003,-0.015,101.0,104.0,97.0,13.4,1505.3,328.4,-0.7,1.9,2469.962,13.33,0.021,261.9
2019-10-01T05:51:00,42.805,6.029,-0.009,-0.004,-0.048,100.0,104.0,98.0,13.4,1505.3,327.6,-0.7,1.8,2469.972,13.33,0.009,246.0
2019-10-01T05:54:01,42.805,6.029,-0.042,-0.01,-0.096,98.0,104.0,96.0,13.3,1505.3,326.7,-0.7,1.8,2469.961,13.33,0.043,256.6
2019-10-01T05:57:02,42.805,6.029,0.001,-0.003,-0.016,97.0,104.0,97.0,13.3,1505.3,323.9,-0.7,1.8,2469.957,13.33,0.003,161.6
2019-10-01T06:00:03,42.805,6.029,0.02,0.01,-0.004,98.0,104.0,96.0,13.4,1505.3,324.7,-0.7,1.8,2469.965,13.33,0.022,63.4
2019-10-01T06:03:04,42.805,6.029,-0.038,-0.012,-0.062,99.0,104.0,97.0,13.4,1505.3,326.4,-0.7,1.9,2469.972,13.33,0.039,252.5
2019-10-01T06:06:05,42.805,6.029,-0.018,-0.005,-0.096,99.0,105.0,97.0,13.3,1505.3,323.3,-0.7,1.8,2469.956,13.33,0.018,254.5
2019-10-01T06:09:06,42.805,6.029,-0.025,-0.009,-0.061,100.0,103.0,98.0,13.3,1505.3,323.2,-0.7,1.9,2469.974,13.33,0.026,250.2
2019-10-01T06:12:07,42.805,6.029,-0.043,0.013,-0.028,99.0,104.0,98.0,13.4,1505.3,323.1,-0.8,1.8,2469.978,13.33,0.044,286.8
2019-10-01T06:15:08,42.805,6.029,0.009,-0.002,-0.031,100.0,104.0,97.0,13.4,1505.3,323.9,-0.7,1.8,2469.989,13.33,0.009,102.5
2019-10-01T06:18:09,42.805,6.029,0.001,0.016,-0.043,99.0,103.0,98.0,13.4,1505.3,324.2,-0.7,1.9,2469.982,13.33,0.016,3.6
2019-10-01T06:21:10,42.805,6.029,-0.019,-0.006,-0.025,99.0,105.0,97.0,13.4,1505.3,324.3,-0.7,1.8,2469.982,13.33,0.019,252.5
2019-10-01T06:24:11,42.805,6.029,-0.009,-0.003,-0.044,99.0,105.0,97.0,13.3,1505.3,326.3,-0.8,1.8,2470.005,13.33,0.009,251.6
2019-10-01T06:27:12,42.805,6.029,-0.014,0.011,-0.03,99.0,104.0,97.0,13.4,1505.3,326.9,-0.7,1.8,2469.994,13.33,0.017,308.2
2019-10-01T06:30:13,42.805,6.029,-0.024,0.005,-0.058,101.0,103.0,97.0,13.4,1505.3,327.2,-0.7,1.9,2469.973,13.33,0.024,281.8
2019-10-01T06:33:14,42.805,6.029,0.061,0.004,0.005,99.0,104.0,97.0,13.4,1505.3,326.0,-0.7,1.8,2469.994,13.33,0.061,86.3
2019-10-01T06:36:15,42.805,6.029,-0.006,-0.001,-0.027,99.0,104.0,98.0,13.4,1505.3,324.2,-0.7,1.8,2469.985,13.33,0.006,260.5
2019-10-01T06:39:16,42.805,6.029,-0.003,0.033,-0.029,100.0,105.0,97.0,13.4,1505.3,323.7,-0.8,1.8,2469.979,13.33,0.033,354.8
2019-10-01T06:42:17,42.805,6.029,-0.027,0.002,-0.061,99.0,105.0,98.0,13.4,1505.3,323.7,-0.8,1.8,2470.026,13.33,0.027,274.2
2019-10-01T06:45:18,42.805,6.029,-0.03,-0.002,-0.062,98.0,104.0,98.0,13.3,1505.3,328.0,-0.7,1.9,2469.991,13.33,0.03,266.2
2019-10-01T06:48:19,42.805,6.029,0.013,0.014,0.002,100.0,103.0,97.0,13.4,1505.3,326.3,-0.7,1.8,2469.999,13.33,0.019,42.9
2019-10-01T06:51:20,42.805,6.029,0.042,-0.005,-0.017,99.0,104.0,98.0,13.4,1505.3,326.6,-0.7,1.8,2469.986,13.33,0.042,96.8
2019-10-01T06:54:21,42.805,6.029,0.028,-0.001,-0.001,100.0,103.0,97.0,13.4,1505.3,324.8,-0.7,1.9,2470.032,13.33,0.028,92.0
2019-10-01T06:57:22,42.805,6.029,0.032,-0.018,-0.023,99.0,103.0,98.0,13.3,1505.3,326.7,-0.7,1.8,2470.053,13.33,0.036,119.4
2019-10-01T07:00:23,42.805,6.029,0.036,-0.019,-0.003,98.0,104.0,98.0,13.3,1505.3,325.5,-0.7,1.8,2470.023,13.33,0.04,117.8
2019-10-01T07:03:24,42.805,6.029,0.013,0.019,0.02,98.0,104.0,97.0,13.3,1505.3,325.2,-0.7,1.8,2470.021,13.33,0.023,34.4
2019-10-01T07:06:25,42.805,6.029,0.047,0.002,-0.015,99.0,105.0,96.0,13.3,1505.3,326.6,-0.8,1.8,2470.092,13.33,0.047,87.6
2019-10-01T07:09:26,42.805,6.029,0.0,-0.003,-0.041,98.0,103.0,98.0,13.4,1505.3,326.5,-0.7,1.8,2470.03,13.33,0.003,180.0
2019-10-01T07:12:27,42.805,6.029,0.042,-0.01,-0.009,100.0,103.0,97.0,13.3,1505.3,325.9,-0.7,1.8,2470.025,13.33,0.043,103.4
2019-10-01T07:15:28,42.805,6.029,0.034,0.004,0.002,99.0,104.0,96.0,13.4,1505.3,323.3,-0.7,1.8,2470.044,13.33,0.034,83.3
2019-10-01T07:18:29,42.805,6.029,0.042,0.002,-0.002,99.0,104.0,97.0,13.4,1505.3,326.0,-0.8,1.8,2470.07,13.33,0.042,87.3
2019-10-01T07:21:30,42.805,6.029,0.044,-0.003,0.019,99.0,104.0,97.0,13.4,1505.3,327.7,-0.7,1.9,2470.072,13.33,0.044,93.9
2019-10-01T07:24:31,42.805,6.029,0.003,0.013,-0.034,99.0,103.0,97.0,13.4,1505.3,325.4,-0.7,1.8,2470.075,13.33,0.013,13.0
2019-10-01T07:27:32,42.805,6.029,-0.013,-0.001,-0.03,99.0,104.0,97.0,13.4,1505.3,325.5,-0.7,1.9,2470.037,13.33,0.013,265.6
2019-10-01T07:30:33,42.805,6.029,0.007,0.013,-0.06,100.0,103.0,97.0,13.4,1505.3,327.1,-0.7,1.8,2470.075,13.33,0.014,28.3
2019-10-01T07:33:34,42.805,6.029,0.006,-0.011,-0.027,100.0,103.0,97.0,13.3,1505.3,323.6,-0.7,1.8,2470.073,13.33,0.012,151.4
2019-10-01T07:36:35,42.805,6.029,0.005,-0.012,-0.024,100.0,104.0,96.0,13.4,1505.3,324.2,-0.7,1.8,2470.077,13.33,0.013,157.4
2019-10-01T07:39:36,42.805,6.029,-0.001,-0.005,-0.026,100.0,102.0,98.0,13.4,1505.3,328.6,-0.7,1.8,2470.075,13.33,0.005,191.3
2019-10-01T07:42:37,42.805,6.029,-0.005,0.005,-0.015,100.0,103.0,97.0,13.3,1505.3,328.1,-0.7,1.8,2470.087,13.33,0.007,315.0
2019-10-01T07:45:37,42.805,6.029,0.029,0.011,-0.025,99.0,105.0,97.0,13.3,1505.3,327.8,-0.7,1.8,2470.089,13.33,0.031,69.2
2019-10-01T07:48:39,42.805,6.029,0.027,0.014,-0.027,100.0,102.0,98.0,13.3,1505.3,326.0,-0.7,1.8,2470.027,13.33,0.03,62.6
2019-10-01T07:51:40,42.805,6.029,-0.03,0.003,-0.075,99.0,102.0,97.0,13.3,1505.3,324.1,-0.7,1.8,2470.113,13.33,0.03,275.7
2019-10-01T07:54:40,42.805,6.029,0.027,0.01,-0.032,99.0,103.0,97.0,13.3,1505.3,322.8,-0.7,1.8,2470.046,13.33,0.028,69.7
2019-10-01T07:57:41,42.805,6.029,0.03,0.005,0.0,97.0,103.0,97.0,13.4,1505.3,325.4,-0.7,1.9,2470.083,13.33,0.03,80.5
2019-10-01T08:00:43,42.805,6.029,-0.003,0.005,-0.039,98.0,103.0,97.0,13.4,1505.3,326.6,-0.7,1.8,2470.099,13.33,0.005,329.0
2019-10-01T08:03:44,42.805,6.029,0.02,-0.014,-0.044,99.0,102.0,97.0,13.4,1505.3,326.7,-0.7,1.9,2470.093,13.33,0.024,125.0
2019-10-01T08:06:45,42.805,6.029,0.029,0.034,-0.021,100.0,103.0,97.0,13.3,1505.3,326.7,-0.7,1.8,2470.08,13.33,0.044,40.5
2019-10-01T08:09:45,42.805,6.029,0.046,0.0,-0.024,99.0,102.0,98.0,13.4,1505.3,323.4,-0.7,1.8,2470.071,13.33,0.046,90.0
2019-10-01T08:12:47,42.805,6.029,0.025,-0.001,-0.002,99.0,103.0,97.0,13.3,1505.3,323.1,-0.7,1.8,2470.109,13.33,0.025,92.3
2019-10-01T08:15:48,42.805,6.029,-0.005,0.013,-0.039,99.0,103.0,98.0,13.4,1505.3,324.1,-0.7,1.9,2470.105,13.33,0.013,339.0
2019-10-01T08:18:48,42.805,6.029,0.054,-0.002,-0.001,99.0,102.0,96.0,13.4,1505.3,327.6,-0.7,1.9,2470.077,13.33,0.054,92.1
2019-10-01T08:21:49,42.805,6.029,0.013,0.0,-0.057,100.0,103.0,97.0,13.4,1505.3,328.6,-0.7,1.8,2470.088,13.33,0.013,90.0
2019-10-01T08:24:50,42.805,6.029,0.04,0.015,0.023,97.0,105.0,98.0,13.4,1505.3,328.6,-0.7,1.8,2470.126,13.33,0.042,69.4
2019-10-01T08:27:52,42.805,6.029,0.009,0.004,-0.048,102.0,104.0,96.0,13.3,1505.3,325.2,-0.7,1.8,2470.129,13.33,0.009,66.0
2019-10-01T08:30:52,42.805,6.029,0.031,0.004,-0.02,100.0,104.0,98.0,13.3,1505.3,326.7,-0.7,1.8,2470.09,13.33,0.031,82.7
2019-10-01T08:33:53,42.805,6.029,-0.003,0.008,0.0,100.0,105.0,97.0,13.3,1505.3,326.7,-0.7,1.8,2470.084,13.33,0.008,339.4
2019-10-01T08:36:55,42.805,6.029,0.004,-0.017,-0.056,100.0,105.0,97.0,13.4,1505.3,325.8,-0.7,1.8,2470.055,13.33,0.017,166.8
2019-10-01T08:39:56,42.805,6.029,-0.007,-0.011,-0.071,100.0,104.0,99.0,13.4,1505.3,324.5,-0.7,1.9,2470.07,13.33,0.013,212.5
2019-10-01T08:42:56,42.805,6.029,0.004,-0.002,-0.031,99.0,103.0,97.0,13.4,1505.3,326.4,-0.7,1.8,2470.052,13.33,0.004,116.6
2019-10-01T08:45:57,42.805,6.029,0.012,0.002,0.021,98.0,105.0,96.0,13.4,1505.3,325.9,-0.7,1.8,2470.1,13.33,0.012,80.5
2019-10-01T08:48:58,42.805,6.029,0.046,0.004,-0.016,100.0,105.0,97.0,13.3,1505.3,326.6,-0.7,1.8,2470.091,13.33,0.046,85.0
2019-10-01T08:51:59,42.805,6.029,0.056,-0.009,0.006,100.0,102.0,97.0,13.3,1505.3,324.9,-0.7,1.8,2470.101,13.33,0.056,99.1
2019-10-01T08:55:00,42.805,6.029,-0.046,-0.012,-0.084,97.0,105.0,98.0,13.3,1505.3,326.3,-0.7,1.8,2470.102,13.33,0.047,255.4
2019-10-01T08:58:01,42.805,6.029,-0.035,0.016,-0.039,99.0,104.0,97.0,13.3,1505.3,324.7,-0.7,1.8,2470.099,13.33,0.038,294.6
2019-10-01T09:01:02,42.805,6.029,-0.013,-0.015,-0.052,100.0,103.0,97.0,13.4,1505.3,323.3,-0.7,1.9,2470.094,13.33,0.019,220.9
2019-10-01T09:04:03,42.805,6.029,-0.018,0.0,-0.097,98.0,105.0,98.0,13.3,1505.3,325.5,-0.7,1.8,2470.115,13.33,0.018,270.0
2019-10-01T09:07:04,42.805,6.029,0.028,0.0,-0.008,100.0,104.0,97.0,13.4,1505.3,325.3,-0.7,1.9,2470.101,13.33,0.028,90.0
2019-10-01T09:10:05,42.805,6.029,-0.035,0.024,-0.048,99.0,105.0,97.0,13.4,1505.3,324.7,-0.7,1.8,2470.106,13.33,0.042,304.4
2019-10-01T09:13:06,42.805,6.029,0.007,-0.004,-0.03,98.0,104.0,98.0,13.4,1505.3,324.7,-0.7,1.8,2470.126,13.33,0.008,119.7
2019-10-01T09:16:07,42.805,6.029,0.037,0.003,-0.007,99.0,103.0,97.0,13.3,1505.3,326.7,-0.7,1.8,2470.111,13.33,0.037,85.4
2019-10-01T09:19:08,42.805,6.029,0.0,-0.01,-0.051,99.0,102.0,98.0,13.4,1505.3,327.3,-0.7,1.8,2470.064,13.33,0.01,180.0
2019-10-01T09:22:09,42.805,6.029,0.037,0.008,-0.033,100.0,105.0,96.0,13.4,1505.3,327.5,-0.7,1.8,2470.143,13.33,0.037,77.8
2019-10-01T09:25:10,42.805,6.029,0.006,-0.008,-0.019,100.0,103.0,97.0,13.3,1505.3,327.6,-0.7,1.9,2470.084,13.33,0.01,143.1
2019-10-01T09:28:11,42.805,6.029,0.032,0.013,0.011,102.0,104.0,97.0,13.4,1505.3,328.0,-0.7,1.8,2470.083,13.33,0.034,67.9
2019-10-01T09:31:12,42.805,6.029,0.035,-0.005,-0.004,99.0,104.0,97.0,13.3,1505.3,327.6,-0.7,1.8,2470.052,13.33,0.035,98.1
2019-10-01T09:34:13,42.805,6.029,0.013,-0.001,-0.02,98.0,105.0,96.0,13.3,1505.3,324.5,-0.7,1.9,2470.121,13.33,0.013,94.4
2019-10-01T09:37:14,42.805,6.029,0.098,0.002,0.067,99.0,103.0,97.0,13.4,1505.3,326.4,-0.7,1.8,2470.105,13.33,0.098,88.8
2019-10-01T09:40:15,42.805,6.029,0.009,-0.01,0.027,99.0,104.0,98.0,13.4,1505.3,327.0,-0.7,1.8,2470.063,13.33,0.013,138.0